TimeEST,TemperatureF,Dew PointF,Humidity,Sea Level PressureIn,VisibilityMPH,Wind Direction,Wind SpeedMPH,Gust SpeedMPH,PrecipitationIn,Events,Conditions,WindDirDegrees,DateUTC
12:15 AM,28.4,23.7,83,30.35,10.0,Calm,Calm,-,N/A,,Clear,0,2012-12-14 05:15:00
12:35 AM,28.2,23.5,83,30.35,10.0,Calm,Calm,-,N/A,,Clear,0,2012-12-14 05:35:00
12:55 AM,28.0,24.4,86,30.35,10.0,Calm,Calm,-,N/A,,Clear,0,2012-12-14 05:55:00
1:15 AM,27.7,23.9,86,30.35,10.0,Calm,Calm,-,N/A,,Clear,0,2012-12-14 06:15:00
1:35 AM,26.4,23.2,88,30.34,10.0,Calm,Calm,-,N/A,,Clear,0,2012-12-14 06:35:00
1:55 AM,26.6,23.0,86,30.35,10.0,Calm,Calm,-,N/A,,Clear,0,2012-12-14 06:55:00
2:15 AM,26.6,23.4,88,30.34,10.0,Calm,Calm,-,N/A,,Clear,0,2012-12-14 07:15:00
2:35 AM,25.7,23.0,89,30.34,10.0,Calm,Calm,-,N/A,,Clear,0,2012-12-14 07:35:00
2:55 AM,26.2,23.0,88,30.34,10.0,Calm,Calm,-,N/A,,Clear,0,2012-12-14 07:55:00
3:15 AM,26.2,23.4,89,30.34,10.0,Calm,Calm,-,N/A,,Clear,0,2012-12-14 08:15:00
3:35 AM,25.3,23.0,91,30.33,10.0,Calm,Calm,-,N/A,,Clear,0,2012-12-14 08:35:00
3:55 AM,24.6,23.4,95,30.34,10.0,Calm,Calm,-,N/A,,Clear,0,2012-12-14 08:55:00
4:15 AM,24.8,23.2,94,30.34,10.0,Calm,Calm,-,N/A,,Clear,0,2012-12-14 09:15:00
4:35 AM,25.0,23.0,92,30.34,10.0,Calm,Calm,-,N/A,,Clear,0,2012-12-14 09:35:00
4:55 AM,24.4,22.6,93,30.34,10.0,Calm,Calm,-,N/A,,Clear,0,2012-12-14 09:55:00
5:15 AM,24.1,22.3,93,30.34,10.0,Calm,Calm,-,N/A,,Clear,0,2012-12-14 10:15:00
6:15 AM,23.2,21.4,93,30.36,10.0,Calm,Calm,-,N/A,,Clear,0,2012-12-14 11:15:00
6:35 AM,23.7,22.1,94,30.36,10.0,Calm,Calm,-,N/A,,Clear,0,2012-12-14 11:35:00
6:55 AM,23.7,21.7,92,30.37,10.0,Calm,Calm,-,N/A,,Clear,0,2012-12-14 11:55:00
7:15 AM,23.2,21.4,93,30.36,10.0,Calm,Calm,-,N/A,,Clear,0,2012-12-14 12:15:00
7:35 AM,21.9,21.0,96,30.35,10.0,Calm,Calm,-,N/A,,Clear,0,2012-12-14 12:35:00
7:55 AM,23.4,23.4,100,30.35,10.0,Calm,Calm,-,N/A,,Clear,0,2012-12-14 12:55:00
8:15 AM,25.3,23.2,91,30.34,10.0,Calm,Calm,-,N/A,,Clear,0,2012-12-14 13:15:00
8:35 AM,28.9,25.3,86,30.35,10.0,Calm,Calm,-,N/A,,Clear,0,2012-12-14 13:35:00
8:55 AM,30.7,25.7,82,30.36,10.0,Calm,Calm,-,N/A,,Clear,0,2012-12-14 13:55:00
9:15 AM,33.3,24.8,71,30.37,10.0,Calm,Calm,-,N/A,,Clear,0,2012-12-14 14:15:00
9:35 AM,35.6,25.5,67,30.37,10.0,Calm,Calm,-,N/A,,Clear,0,2012-12-14 14:35:00
9:55 AM,37.8,26.4,64,30.38,10.0,Calm,Calm,-,N/A,,Clear,0,2012-12-14 14:55:00
10:15 AM,40.5,26.6,58,30.37,10.0,Calm,Calm,-,N/A,,Clear,0,2012-12-14 15:15:00
10:35 AM,42.8,28.2,56,30.38,10.0,Calm,Calm,-,N/A,,Clear,0,2012-12-14 15:35:00
10:55 AM,44.6,27.7,52,30.37,10.0,SW,3.5,-,N/A,,Clear,220,2012-12-14 15:55:00
11:15 AM,46.6,27.1,47,30.36,10.0,SW,3.5,-,N/A,,Clear,220,2012-12-14 16:15:00
11:35 AM,48.4,27.0,43,30.35,10.0,West,3.5,-,N/A,,Clear,280,2012-12-14 16:35:00
11:55 AM,49.5,25.5,39,30.33,10.0,West,3.5,-,N/A,,Clear,260,2012-12-14 16:55:00
12:15 PM,50.5,26.2,39,30.31,10.0,WSW,3.5,-,N/A,,Clear,250,2012-12-14 17:15:00
12:35 PM,51.8,26.6,38,30.30,10.0,Calm,Calm,-,N/A,,Clear,0,2012-12-14 17:35:00
12:55 PM,52.3,26.2,36,30.29,10.0,Calm,Calm,-,N/A,,Clear,0,2012-12-14 17:55:00
1:15 PM,54.3,27.7,36,30.28,10.0,Calm,Calm,-,N/A,,Clear,0,2012-12-14 18:15:00
3:35 PM,56.1,25.9,31,30.23,10.0,Calm,Calm,-,N/A,,Clear,0,2012-12-14 20:35:00
3:55 PM,55.8,25.2,31,30.24,10.0,Calm,Calm,-,N/A,,Clear,0,2012-12-14 20:55:00
4:15 PM,55.2,25.0,31,30.24,10.0,Calm,Calm,-,N/A,,Clear,0,2012-12-14 21:15:00
4:35 PM,53.6,25.3,34,30.24,10.0,Calm,Calm,-,N/A,,Clear,0,2012-12-14 21:35:00
5:15 PM,49.3,23.9,37,30.24,10.0,Calm,Calm,-,N/A,,Clear,0,2012-12-14 22:15:00
5:35 PM,46.8,24.1,41,30.24,10.0,Calm,Calm,-,N/A,,Clear,0,2012-12-14 22:35:00
5:55 PM,45.7,24.8,44,30.24,10.0,Calm,Calm,-,N/A,,Clear,0,2012-12-14 22:55:00
6:15 PM,43.9,26.1,50,30.24,10.0,Calm,Calm,-,N/A,,Clear,0,2012-12-14 23:15:00
6:35 PM,41.9,26.1,53,30.24,10.0,Calm,Calm,-,N/A,,Clear,0,2012-12-14 23:35:00
6:55 PM,40.1,26.8,59,30.24,10.0,Calm,Calm,-,N/A,,Clear,0,2012-12-14 23:55:00
7:15 PM,39.2,27.5,63,30.25,10.0,Calm,Calm,-,N/A,,Clear,0,2012-12-15 00:15:00
7:35 PM,38.3,26.6,63,30.25,10.0,Calm,Calm,-,N/A,,Clear,0,2012-12-15 00:35:00
7:55 PM,35.1,27.0,72,30.25,10.0,Calm,Calm,-,N/A,,Clear,0,2012-12-15 00:55:00
8:15 PM,34.7,26.4,72,30.25,10.0,Calm,Calm,-,N/A,,Clear,0,2012-12-15 01:15:00
8:35 PM,33.4,25.9,74,30.24,10.0,Calm,Calm,-,N/A,,Clear,0,2012-12-15 01:35:00
8:55 PM,33.8,27.1,77,30.25,10.0,Calm,Calm,-,N/A,,Clear,0,2012-12-15 01:55:00
9:35 PM,32.5,26.8,79,30.26,10.0,Calm,Calm,-,N/A,,Clear,0,2012-12-15 02:35:00
9:55 PM,30.4,26.2,85,30.24,10.0,Calm,Calm,-,N/A,,Clear,0,2012-12-15 02:55:00
10:15 PM,30.0,26.1,85,30.25,10.0,Calm,Calm,-,N/A,,Clear,0,2012-12-15 03:15:00
10:35 PM,30.9,26.4,83,30.25,10.0,Calm,Calm,-,N/A,,Clear,0,2012-12-15 03:35:00
10:55 PM,31.8,26.4,80,30.24,10.0,Calm,Calm,-,N/A,,Clear,0,2012-12-15 03:55:00
11:15 PM,31.8,26.8,82,30.24,10.0,Calm,Calm,-,N/A,,Clear,0,2012-12-15 04:15:00
11:35 PM,31.1,26.4,83,30.24,10.0,Calm,Calm,-,N/A,,Clear,0,2012-12-15 04:35:00
11:55 PM,31.8,26.4,80,30.25,10.0,Calm,Calm,-,N/A,,Clear,0,2012-12-15 04:55:00